Weather History for Taos, NM

Change the Weather History Date:

Wednesday, April 10, 2013

  Actual Average Record
Temperature  
Mean Temperature 34 °F -  
Max Temperature 42 °F 55 °F 71 °F (2002)
Min Temperature 26 °F 24 °F 17 °F (1998)
Degree Days  
Heating Degree Days 31    
Moisture  
Dew Point 23 °F    
Average Humidity 67    
Maximum Humidity 93    
Minimum Humidity 39    
Precipitation  
Precipitation 0.00 in - - ()
Sea Level Pressure  
Sea Level Pressure 29.89 in    
Wind  
Wind Speed 10 mph (WSW)    
Max Wind Speed 20 mph    
Max Gust Speed 28 mph    
Visibility 10 miles    
Events      
Averages and records for this station are not official NWS values.
T = Trace of Precipitation, MM = Missing Value Source: NWS Daily Summary

Daily Weather History Graph

Daily Weather History Graph

Search for Another Location

Airport:

Trip Planner

Search our weather history database for the weather conditions in past years. The results will help you decide how hot, cold, wet, or windy it might be!

Date:

Astronomy

Apr. 10, 2013 Rise Set
Actual Time 6:35 AM MDT 7:32 PM MDT
Civil Twilight 6:09 AM MDT 7:59 PM MDT
Nautical Twilight 5:37 AM MDT 8:30 PM MDT
Astronomical Twilight 5:05 AM MDT 9:02 PM MDT
Moon 6:34 AM MDT 8:09 PM MDT
Length of Visible Light 13h 50m
Length of Day
12h 57m
New Moon, 0% of the Moon is Illuminated
Apr 10
New Moon
Apr 18
First Quarter
Apr 25
Full
May 2
Last Quarter
May 9
New

Hourly Weather History & Observations

Time (MDT) Temp. Windchill Dew Point Humidity Pressure Visibility Wind Dir Wind Speed Gust Speed Precip Events Conditions
12:15 AM 32.0 °F - 28.4 °F 87% 29.86 in 10.0 mi Calm Calm - N/A   Overcast
12:35 AM 32.0 °F - 28.4 °F 87% 29.86 in 10.0 mi Calm Calm - N/A   Overcast
12:55 AM 32.0 °F 24.8 °F 28.4 °F 87% 29.86 in 10.0 mi WSW 8.1 mph - N/A   Overcast
1:15 AM 32.0 °F 24.2 °F 26.6 °F 80% 29.86 in 5.0 mi SW 9.2 mph - N/A   Overcast
1:35 AM 32.0 °F 24.8 °F 28.4 °F 87% 29.87 in 10.0 mi SW 8.1 mph - N/A   Overcast
1:55 AM 32.0 °F 24.8 °F 28.4 °F 87% 29.86 in 10.0 mi SW 8.1 mph - N/A   Overcast
2:15 AM 32.0 °F 22.5 °F 28.4 °F 87% 29.86 in 10.0 mi SW 12.7 mph - N/A   Overcast
2:35 AM 32.0 °F 23.0 °F 28.4 °F 87% 29.85 in 6.0 mi SW 11.5 mph - N/A   Overcast
2:55 AM 32.0 °F 23.0 °F 28.4 °F 87% 29.85 in 5.0 mi SW 11.5 mph 17.3 mph N/A   Overcast
3:15 AM 32.0 °F 22.1 °F 28.4 °F 87% 29.85 in 7.0 mi SW 13.8 mph - N/A   Overcast
3:35 AM 30.2 °F 19.8 °F 28.4 °F 93% 29.85 in 10.0 mi WSW 13.8 mph - N/A   Overcast
3:55 AM 30.2 °F 20.8 °F 28.4 °F 93% 29.85 in 10.0 mi WSW 11.5 mph - N/A   Overcast
4:15 AM 30.2 °F 21.3 °F 28.4 °F 93% 29.85 in 10.0 mi WSW 10.4 mph - N/A   Overcast
4:35 AM 30.2 °F 21.9 °F 26.6 °F 86% 29.85 in 10.0 mi WSW 9.2 mph - N/A   Overcast
4:55 AM 30.2 °F 20.2 °F 26.6 °F 86% 29.84 in 10.0 mi WSW 12.7 mph - N/A   Mostly Cloudy
5:15 AM 30.2 °F 21.3 °F 26.6 °F 86% 29.85 in 10.0 mi WSW 10.4 mph - N/A   Mostly Cloudy
5:35 AM 30.2 °F 21.3 °F 26.6 °F 86% 29.85 in 10.0 mi WSW 10.4 mph - N/A   Overcast
5:55 AM 30.2 °F 20.2 °F 24.8 °F 80% 29.86 in 10.0 mi WSW 12.7 mph - N/A   Overcast
6:15 AM 30.2 °F 20.2 °F 24.8 °F 80% 29.86 in 10.0 mi WSW 12.7 mph - N/A   Overcast
6:35 AM 30.2 °F 20.8 °F 24.8 °F 80% 29.87 in 10.0 mi WSW 11.5 mph - N/A   Overcast
6:55 AM 30.2 °F 21.3 °F 24.8 °F 80% 29.88 in 10.0 mi WSW 10.4 mph - N/A   Overcast
7:15 AM 28.4 °F 18.5 °F 24.8 °F 86% 29.89 in 10.0 mi SW 11.5 mph - N/A   Overcast
7:35 AM 28.4 °F 19.1 °F 24.8 °F 86% 29.89 in 10.0 mi WSW 10.4 mph - N/A   Overcast
7:55 AM 30.2 °F 20.2 °F 24.8 °F 80% 29.90 in 10.0 mi WSW 12.7 mph - N/A   Overcast
8:15 AM 30.2 °F 20.8 °F 24.8 °F 80% 29.91 in 10.0 mi WSW 11.5 mph - N/A   Overcast
8:35 AM 30.2 °F 21.3 °F 24.8 °F 80% 29.92 in 10.0 mi SW 10.4 mph - N/A   Overcast
8:55 AM 30.2 °F 21.3 °F 24.8 °F 80% 29.92 in 10.0 mi SW 10.4 mph - N/A   Overcast
9:15 AM 30.2 °F 20.2 °F 24.8 °F 80% 29.92 in 10.0 mi SW 12.7 mph - N/A   Overcast
9:35 AM 32.0 °F 21.6 °F 24.8 °F 75% 29.92 in 10.0 mi SW 15.0 mph - N/A   Overcast
9:55 AM 33.8 °F 24.3 °F 23.0 °F 65% 29.92 in 10.0 mi SW 13.8 mph - N/A   Overcast
10:15 AM 33.8 °F 25.3 °F 23.0 °F 65% 29.92 in 10.0 mi SW 11.5 mph 16.1 mph N/A   Overcast
10:35 AM 33.8 °F 24.3 °F 23.0 °F 65% 29.92 in 10.0 mi WSW 13.8 mph - N/A   Overcast
11:15 AM 33.8 °F 24.3 °F 23.0 °F 65% 29.92 in 10.0 mi WSW 13.8 mph 20.7 mph N/A   Overcast
11:35 AM 35.6 °F 27.5 °F 23.0 °F 60% 29.92 in 10.0 mi WSW 11.5 mph 18.4 mph N/A   Mostly Cloudy
12:15 PM 37.4 °F 28.2 °F 24.8 °F 60% 29.91 in 10.0 mi WSW 16.1 mph 21.9 mph N/A   Overcast
12:35 PM 37.4 °F 27.2 °F 23.0 °F 56% 29.90 in 10.0 mi SW 19.6 mph 24.2 mph N/A   Mostly Cloudy
12:55 PM 39.2 °F 31.2 °F 24.8 °F 56% 29.90 in 10.0 mi WSW 13.8 mph 23.0 mph N/A   Overcast
1:15 PM 39.2 °F 29.8 °F 23.0 °F 52% 29.89 in 10.0 mi WSW 18.4 mph 23.0 mph N/A   Overcast
1:35 PM 39.2 °F 30.8 °F 21.2 °F 49% 29.89 in 10.0 mi West 15.0 mph 19.6 mph N/A   Overcast
1:55 PM 41.0 °F 32.5 °F 23.0 °F 49% 29.88 in 10.0 mi WSW 17.3 mph 24.2 mph N/A   Overcast
2:15 PM 39.2 °F 29.8 °F 23.0 °F 52% 29.88 in 10.0 mi WSW 18.4 mph 24.2 mph N/A   Overcast
2:35 PM 39.2 °F 31.2 °F 21.2 °F 49% 29.88 in 10.0 mi WSW 13.8 mph 23.0 mph N/A   Overcast
2:55 PM 39.2 °F 31.2 °F 21.2 °F 49% 29.87 in 10.0 mi West 13.8 mph 21.9 mph N/A   Overcast
3:15 PM 39.2 °F 29.8 °F 21.2 °F 49% 29.87 in 10.0 mi West 18.4 mph 21.9 mph N/A   Overcast
3:35 PM 41.0 °F 31.9 °F 21.2 °F 45% 29.86 in 10.0 mi West 19.6 mph 24.2 mph N/A   Overcast
3:55 PM 42.8 °F 34.5 °F 21.2 °F 42% 29.85 in 10.0 mi West 18.4 mph 26.5 mph N/A   Overcast
4:15 PM 42.8 °F 35.1 °F 21.2 °F 42% 29.85 in 10.0 mi West 16.1 mph 25.3 mph N/A   Mostly Cloudy
4:35 PM 42.8 °F 34.5 °F 19.4 °F 39% 29.85 in 10.0 mi West 18.4 mph 26.5 mph N/A   Mostly Cloudy
4:55 PM 42.8 °F 34.8 °F 19.4 °F 39% 29.86 in 10.0 mi West 17.3 mph 27.6 mph N/A   Mostly Cloudy
5:15 PM 42.8 °F 34.5 °F 19.4 °F 39% 29.86 in 10.0 mi West 18.4 mph 24.2 mph N/A   Mostly Cloudy
5:35 PM 41.0 °F 33.1 °F 19.4 °F 42% 29.87 in 10.0 mi West 15.0 mph 24.2 mph N/A   Scattered Clouds
5:55 PM 41.0 °F 32.8 °F 17.6 °F 39% 29.87 in 10.0 mi West 16.1 mph 26.5 mph N/A   Partly Cloudy
6:15 PM 39.2 °F 31.2 °F 17.6 °F 42% 29.88 in 10.0 mi West 13.8 mph - N/A   Clear
6:35 PM 39.2 °F 31.2 °F 17.6 °F 42% 29.88 in 10.0 mi West 13.8 mph - N/A   Clear
6:55 PM 37.4 °F 28.5 °F 17.6 °F 45% 29.88 in 10.0 mi West 15.0 mph - N/A   Clear
7:15 PM 35.6 °F 27.5 °F 17.6 °F 48% 29.89 in 10.0 mi West 11.5 mph - N/A   Clear
7:35 PM 33.8 °F 25.8 °F 17.6 °F 52% 29.89 in 10.0 mi West 10.4 mph - N/A   Clear
7:55 PM 32.0 °F 25.6 °F 17.6 °F 55% 29.91 in 10.0 mi WSW 6.9 mph - N/A   Clear
8:15 PM 32.0 °F 24.2 °F 17.6 °F 55% 29.92 in 10.0 mi SW 9.2 mph - N/A   Scattered Clouds
8:35 PM 32.0 °F 25.6 °F 17.6 °F 55% 29.93 in 10.0 mi SW 6.9 mph - N/A   Mostly Cloudy
8:55 PM 30.2 °F 24.3 °F 17.6 °F 60% 29.95 in 10.0 mi SSW 5.8 mph - N/A   Mostly Cloudy
9:15 PM 28.4 °F 21.2 °F 17.6 °F 64% 29.95 in 10.0 mi SSW 6.9 mph - N/A   Mostly Cloudy
9:35 PM 28.4 °F 21.2 °F 17.6 °F 64% 29.95 in 10.0 mi SSW 6.9 mph - N/A   Overcast
9:55 PM 28.4 °F 22.2 °F 17.6 °F 64% 29.95 in 10.0 mi SSW 5.8 mph - N/A   Overcast
10:15 PM 28.4 °F 23.3 °F 17.6 °F 64% 29.95 in 10.0 mi SSW 4.6 mph - N/A   Mostly Cloudy
10:35 PM 26.6 °F 20.0 °F 17.6 °F 69% 29.95 in 10.0 mi SSE 5.8 mph - N/A   Scattered Clouds
10:55 PM 26.6 °F 21.2 °F 17.6 °F 69% 29.96 in 10.0 mi SE 4.6 mph - N/A   Clear
11:15 PM 26.6 °F 21.2 °F 17.6 °F 69% 29.95 in 10.0 mi SSE 4.6 mph - N/A   Mostly Cloudy
11:35 PM 28.4 °F 24.6 °F 17.6 °F 64% 29.95 in 10.0 mi South 3.5 mph - N/A   Overcast
11:55 PM 28.4 °F - 17.6 °F 64% 29.95 in 10.0 mi Calm Calm - N/A   Mostly Cloudy